Theta_e
297 297 297 298 298 296 296 295 296 296 297 300 300 299 300 304 302 301 308 311 308 308 311 312 314 316 316 315 315 315 316 316 317 317 316 316 316 316 316 316 317 317 317 319 320 320 321 322 322 323 323 325 328 332 337 341 344 344 348 349 349 349 351 352 354 356 357 357 358 360 360 360 360 359 358 358 358 358 358 358 355 355 354 353 354 355 356
295 296 296 297 296 295 296 295 295 296 296 297 299 299 301 302 305 309 309 310 309 309 310 312 313 316 315 315 316 316 314 313 314 314 314 313 314 315 315 315 315 316 317 317 318 320 321 321 321 321 321 323 324 327 331 334 337 342 345 347 349 349 348 350 353 356 358 360 359 359 361 361 362 361 359 359 358 359 358 358 359 359 358 356 354 354 355
293 294 296 297 295 295 295 295 295 295 296 297 298 298 299 301 301 306 308 308 306 310 313 313 315 316 315 316 314 314 314 313 312 312 312 312 312 313 314 316 315 316 316 316 317 318 320 321 320 320 320 321 323 325 327 330 334 339 341 344 346 348 350 351 353 357 359 360 360 359 362 363 363 363 361 360 359 360 359 359 359 361 358 356 354 354 353
293 294 294 294 295 294 295 296 296 295 296 295 297 299 300 300 299 304 306 304 304 308 312 313 313 313 314 313 313 313 314 313 312 311 311 311 312 312 313 314 315 315 315 315 315 315 317 320 320 321 321 320 322 322 324 326 330 334 339 343 346 350 351 353 355 355 357 359 361 361 361 363 364 364 363 361 360 360 359 358 360 359 357 357 357 355 353
293 294 294 293 292 295 293 296 299 301 303 305 305 305 306 304 302 301 300 302 310 310 312 310 311 312 312 313 312 313 314 314 313 311 311 311 312 312 313 313 314 314 315 315 315 314 316 319 319 320 321 320 321 323 324 325 329 331 335 340 346 350 353 353 354 356 358 357 358 360 360 361 364 364 364 362 360 359 357 359 358 359 360 357 357 356 355
293 293 294 294 293 286 289 301 302 302 300 302 300 300 303 305 308 305 309 309 311 311 311 309 309 310 311 313 312 313 313 312 312 312 312 311 312 312 313 314 314 316 316 316 316 316 317 318 318 320 322 319 320 323 325 327 329 330 333 339 345 346 350 352 354 356 358 357 357 359 359 362 363 363 363 362 360 359 358 359 359 358 358 359 358 359 357
293 295 294 291 285 287 299 303 304 303 302 302 302 302 303 305 308 308 308 308 309 310 310 311 311 312 312 313 313 312 312 313 312 312 312 312 312 312 313 313 313 315 316 317 317 317 317 317 318 319 318 318 320 322 324 325 327 330 331 335 340 341 343 346 349 352 355 356 356 358 360 360 361 360 361 362 361 359 357 357 358 358 357 358 358 359 357
297 292 291 282 285 297 299 300 304 305 303 303 302 301 303 305 307 307 305 307 308 309 309 310 312 312 311 313 314 313 312 312 311 311 311 312 312 312 312 313 314 315 314 315 316 317 319 318 318 317 317 318 319 319 322 325 326 328 329 333 334 335 338 341 341 344 346 353 356 358 358 360 360 360 360 362 361 361 359 356 358 358 358 358 357 357 358
289 291 290 289 297 296 297 298 300 301 299 299 299 295 300 306 307 306 306 306 307 307 308 309 310 310 310 311 312 312 311 311 311 311 311 312 313 313 313 313 313 315 316 315 316 317 317 318 318 318 319 319 318 319 321 323 326 327 327 329 330 332 335 336 338 340 342 346 353 355 357 357 358 357 360 359 361 363 360 358 356 356 357 357 360 358 357
297 292 289 288 289 285 293 302 306 307 308 306 305 303 301 306 307 308 307 306 306 307 307 308 309 308 306 304 308 312 311 311 310 311 311 312 313 313 314 314 314 315 315 315 316 316 316 316 318 319 319 319 318 319 320 321 323 325 326 327 328 329 330 334 338 340 342 343 345 351 354 355 356 361 358 358 359 362 360 358 357 356 357 358 359 359 358
294 292 288 286 284 288 302 302 303 305 306 305 306 298 295 304 307 307 307 305 306 306 307 308 308 305 301 303 308 311 310 310 311 310 311 311 312 313 313 313 312 313 315 316 316 316 316 314 317 318 319 318 317 317 319 320 322 323 325 327 327 327 329 332 337 339 340 342 343 344 349 353 354 356 356 354 356 356 358 360 357 360 360 359 358 359 358
294 293 289 286 292 290 301 304 304 303 306 303 304 290 291 303 306 307 308 306 305 306 308 308 307 304 301 303 307 309 310 310 311 311 311 311 311 312 312 313 313 314 316 316 315 314 313 315 317 318 317 318 318 318 317 318 319 322 325 327 329 329 329 331 334 337 340 341 341 343 345 349 352 353 354 351 350 354 352 353 355 360 357 358 358 358 358
293 289 291 293 295 301 305 304 305 305 306 304 293 287 298 305 306 308 307 307 307 308 306 307 304 307 309 309 309 309 310 309 309 310 311 311 311 310 310 311 313 312 313 313 312 313 315 316 316 317 317 316 317 319 319 317 318 320 324 327 329 330 331 331 331 335 339 340 341 344 346 347 348 351 352 352 349 350 354 353 352 355 358 358 358 359 358
291 293 290 291 295 301 305 305 306 306 301 290 290 302 308 308 307 308 307 307 307 307 306 306 307 308 308 308 308 308 308 307 308 308 309 309 309 310 311 312 312 311 311 312 313 313 315 315 315 316 316 316 318 318 318 318 319 320 323 326 328 330 331 331 332 333 337 341 342 343 346 348 348 349 351 352 353 351 352 354 354 356 357 355 355 356 358
295 294 290 288 284 299 305 306 304 305 296 299 305 307 308 308 308 307 307 306 306 306 305 306 306 306 305 306 306 306 306 307 307 308 308 308 308 308 309 310 310 310 310 310 311 312 313 314 315 315 316 316 317 318 318 320 321 321 321 323 327 329 331 331 333 334 336 339 341 343 345 348 347 346 348 347 348 350 351 353 356 356 355 355 355 354 358
288 289 286 286 297 303 307 304 297 303 305 308 308 305 305 306 306 306 306 307 307 307 306 305 305 306 306 306 306 307 307 307 308 308 309 310 309 309 309 309 309 310 310 311 311 313 313 315 316 317 317 317 317 318 319 322 322 322 322 323 326 328 330 330 331 332 334 335 338 341 343 345 347 347 347 347 347 350 352 353 355 356 355 357 357 355 355
294 289 295 302 304 306 307 307 306 307 309 308 307 304 305 307 306 307 306 306 308 308 306 306 306 305 306 306 306 306 306 307 307 307 308 308 308 308 309 308 310 310 310 310 311 312 313 314 316 317 318 317 318 318 320 322 322 321 321 322 324 325 328 329 331 331 333 335 336 338 341 342 344 344 346 348 347 349 350 351 354 355 356 356 355 355 355
303 304 304 305 304 305 306 309 310 308 307 307 307 306 304 306 307 308 306 307 307 307 308 306 305 305 306 307 307 307 307 307 308 309 309 309 310 310 309 309 310 310 310 311 311 311 313 315 315 317 317 317 317 318 320 321 322 322 322 323 323 326 328 329 330 332 331 332 335 337 340 341 343 344 346 346 347 348 350 351 353 356 356 356 356 357 356
296 291 303 301 302 305 306 306 308 310 309 309 308 307 306 307 308 308 308 307 307 307 307 306 306 306 307 307 307 308 308 308 308 308 309 309 310 309 309 310 311 310 311 310 311 312 313 315 316 316 317 318 319 320 320 321 321 321 321 322 323 325 326 328 330 331 331 331 333 336 337 338 340 342 343 346 347 347 348 350 352 355 355 356 356 356 356
297 296 303 304 306 306 307 306 305 306 308 309 309 309 309 309 309 308 308 308 307 307 306 307 306 306 307 306 307 307 307 307 308 308 308 309 309 310 311 311 312 312 311 311 311 312 313 315 316 317 317 317 318 319 320 320 320 320 320 320 321 323 325 326 327 328 328 329 331 332 334 337 338 339 341 344 344 346 347 348 349 351 353 352 356 354 355
300 303 304 305 305 305 305 306 307 308 308 308 309 308 308 308 307 308 308 308 308 308 307 307 307 306 306 306 307 306 305 306 307 307 307 309 309 309 309 310 311 310 310 310 311 311 311 313 315 315 317 318 318 319 319 320 320 320 320 321 323 323 323 324 325 328 328 328 329 331 334 337 337 340 341 342 343 344 347 349 350 350 352 355 353 353 355
295 296 300 304 298 298 302 305 306 307 308 308 309 309 308 307 307 307 307 307 309 308 308 307 307 305 305 306 306 306 305 306 307 307 307 307 308 309 309 310 310 310 311 311 311 311 312 313 314 315 316 317 318 318 319 319 319 320 321 321 321 322 323 324 324 326 328 327 328 330 331 332 335 336 335 322 331 341 341 337 327 319 318 338 346 347 346
295 302 306 307 305 304 305 307 308 308 310 309 308 308 308 308 308 308 307 307 307 308 308 309 307 306 306 306 306 306 306 306 307 307 307 306 307 307 309 308 308 309 309 310 310 310 311 313 313 314 315 316 318 318 319 320 319 320 321 320 319 319 321 322 324 326 326 327 328 330 332 333 334 334 336 340 313 310 318 325 321 316 313 312 312 314 332
303 305 306 308 305 303 306 308 309 308 310 309 308 309 309 309 309 309 308 308 307 307 308 308 308 306 306 306 305 305 305 306 306 306 307 307 307 307 308 308 308 309 309 309 309 310 311 312 312 313 313 315 317 317 319 319 319 320 320 319 318 318 319 322 324 326 326 327 328 329 331 333 334 333 334 334 340 321 310 313 314 310 309 309 309 310 311
301 307 308 308 307 307 309 310 309 310 310 310 308 308 309 309 309 309 308 308 309 307 306 306 307 307 306 306 305 305 305 305 306 306 307 307 306 307 307 308 308 308 308 309 309 310 310 311 312 312 312 313 315 316 318 319 319 319 319 319 318 318 319 321 322 325 324 325 327 329 330 332 332 334 333 334 334 338 348 311 306 306 307 306 306 307 308
307 308 309 310 309 308 309 309 309 309 309 309 309 309 310 309 309 309 309 309 307 307 306 306 306 307 306 306 306 305 305 305 306 306 305 305 305 306 306 307 308 309 309 309 309 309 309 310 310 311 311 312 314 316 316 318 318 318 318 318 319 319 319 321 322 323 323 324 324 325 328 331 333 333 333 334 335 336 336 337 339 328 308 304 304 306 304
308 309 308 307 306 307 308 306 304 309 309 310 309 309 310 310 308 308 309 309 309 308 307 307 307 307 306 306 306 306 305 305 306 304 304 305 305 306 306 308 309 309 309 308 308 309 310 310 310 310 311 312 314 316 317 317 318 319 319 320 320 322 323 323 323 323 324 325 327 328 329 331 333 335 335 336 336 334 334 334 334 334 338 344 319 304 324
309 310 309 305 304 305 306 308 309 310 310 310 309 309 309 310 309 307 307 307 307 308 307 308 306 305 304 305 305 305 305 305 303 304 304 304 305 306 307 308 308 308 308 308 308 309 310 310 310 310 310 313 315 316 316 317 317 316 316 316 317 317 319 320 322 324 324 325 326 328 330 331 334 334 333 332 332 332 330 331 331 333 336 339 343 328 313
309 309 311 310 310 309 309 311 309 309 309 310 310 310 309 308 307 306 305 306 306 307 306 306 307 306 305 305 305 304 304 303 303 304 304 305 306 306 307 307 308 308 308 308 309 309 309 309 309 309 310 312 314 315 316 316 316 316 316 317 318 318 318 320 322 324 325 326 328 328 327 328 330 332 331 331 330 331 331 330 331 333 335 339 342 343 336
309 310 310 310 310 309 308 307 307 308 308 309 308 308 308 307 305 305 305 305 306 304 305 305 305 305 305 304 305 304 304 303 303 304 305 306 306 306 307 307 307 307 307 308 309 309 309 309 309 309 311 313 314 315 315 316 316 317 318 318 318 318 319 321 324 325 325 325 326 324 327 329 331 331 330 330 330 330 329 330 331 332 333 337 332 338 340
310 311 310 310 309 308 307 307 308 308 308 309 308 307 307 306 304 304 304 304 305 304 304 304 304 305 304 304 304 305 305 305 305 305 305 306 306 306 307 306 304 303 304 305 307 308 309 310 310 310 312 313 314 315 315 315 315 317 318 318 319 317 317 317 319 323 324 324 325 326 327 328 329 330 329 328 329 329 330 331 331 332 334 336 338 340 342
309 309 308 308 308 307 307 307 307 307 308 308 306 305 305 305 304 303 303 302 304 303 304 304 303 303 304 305 305 305 304 305 305 305 305 305 306 306 306 306 305 306 305 305 306 308 308 309 309 311 314 314 315 315 315 314 315 315 315 317 318 320 319 318 320 321 323 323 323 325 326 326 326 327 327 328 328 328 329 329 330 332 333 333 335 339 343
308 306 306 306 307 307 307 308 307 307 307 306 306 306 306 306 305 304 304 304 303 304 304 303 304 304 305 304 304 304 304 304 304 304 304 304 305 305 306 306 305 305 306 307 308 309 309 309 311 314 315 314 316 315 315 315 315 315 316 317 318 319 321 320 321 322 324 324 325 324 325 326 326 327 326 327 327 327 327 328 329 329 330 331 333 336 337
309 307 308 308 308 306 305 306 307 307 307 307 306 306 305 305 305 305 304 305 304 304 304 304 304 304 304 304 304 304 303 303 301 302 303 304 304 304 305 305 305 305 306 308 310 310 311 313 314 314 315 315 315 315 315 315 315 316 317 318 318 318 320 321 321 323 323 323 323 324 325 326 327 326 326 326 326 326 325 326 326 327 329 330 332 334 328
312 311 311 311 310 309 310 308 308 306 305 304 304 305 305 305 304 305 305 305 305 304 305 305 305 304 304 304 303 303 302 302 302 302 302 303 303 304 304 304 304 304 305 307 309 309 310 310 312 314 314 315 314 314 314 315 315 315 318 319 320 320 321 322 323 323 322 322 323 323 323 324 323 323 323 323 323 323 323 323 324 325 327 327 329 331 331
311 311 311 310 310 310 308 307 306 306 305 305 305 305 305 305 305 305 305 305 305 305 305 304 304 304 303 302 302 302 301 301 301 300 301 301 301 302 303 303 303 303 304 305 308 310 309 309 312 314 313 313 313 313 314 315 316 316 318 318 320 321 321 321 321 321 322 321 321 321 320 320 321 321 321 322 322 322 322 322 322 323 324 325 327 329 332
312 311 310 309 308 308 307 307 306 306 305 305 305 305 304 305 305 306 306 306 305 305 304 304 304 303 303 303 302 302 301 300 300 299 299 299 300 301 301 301 302 302 302 303 306 308 308 308 312 313 314 314 314 315 316 316 316 316 318 319 320 318 319 320 320 320 319 320 319 318 318 318 318 318 319 319 319 320 320 320 320 321 321 322 324 325 326
312 312 310 309 308 307 307 307 307 306 305 305 306 305 306 306 306 306 305 305 305 305 305 304 303 303 303 303 302 300 299 300 300 299 299 299 300 299 299 300 301 301 301 302 306 308 308 310 311 312 312 313 315 316 318 317 318 318 319 319 320 320 318 318 318 318 318 318 318 317 316 316 317 318 319 319 319 318 317 317 317 317 317 317 317 317 318
311 311 310 309 308 307 307 307 306 306 305 305 304 305 305 306 306 306 305 304 305 305 304 303 303 302 301 300 300 299 299 299 299 298 298 298 299 298 298 300 301 302 302 306 307 308 309 309 309 310 310 312 313 316 317 318 318 318 317 319 320 319 319 318 317 317 317 317 316 315 315 315 315 316 316 316 316 315 314 314 313 313 312 311 309 310 310
310 309 309 308 306 306 305 306 305 306 307 306 305 305 306 306 305 305 305 304 305 305 303 302 301 300 300 299 299 299 299 299 299 298 298 298 298 298 299 300 302 303 304 306 306 307 308 309 308 308 309 309 310 312 314 316 317 318 317 317 317 317 317 317 316 316 315 315 314 314 313 313 314 314 314 314 313 312 311 310 309 309 309 308 306 306 307
306 304 306 305 305 305 304 304 304 306 306 306 306 306 306 306 306 305 303 303 303 303 302 301 300 300 299 299 299 299 299 299 299 299 299 298 297 298 297 297 302 304 303 304 305 306 307 307 307 307 307 309 310 312 312 314 316 316 316 316 315 315 315 315 315 315 315 314 313 312 312 312 312 312 312 311 310 309 308 308 307 306 305 305 304 304 304
307 306 305 305 305 304 303 304 304 304 305 306 306 306 306 306 305 304 304 304 303 302 301 301 300 300 300 300 300 300 299 299 299 298 299 298 297 297 296 298 302 302 304 304 305 305 305 305 306 307 307 308 309 310 311 311 312 313 314 314 314 315 315 315 314 313 313 312 312 312 312 311 310 309 309 308 308 307 306 305 304 303 303 303 302 302 302
308 307 306 304 303 303 304 304 303 303 303 304 305 305 306 306 305 304 303 303 302 302 301 301 301 301 301 300 299 298 298 298 298 298 298 299 300 299 298 298 301 302 302 303 303 303 304 304 304 305 306 306 307 308 309 309 310 310 311 312 312 312 313 313 313 312 311 310 310 310 310 309 308 307 307 306 305 304 302 302 301 301 300 300 300 300 300
307 307 306 304 302 303 303 303 302 303 302 303 304 305 305 305 304 303 302 302 301 301 301 301 300 300 300 299 298 298 298 298 298 297 296 297 298 300 301 301 301 302 302 303 302 302 302 304 304 303 305 305 306 306 308 307 308 309 310 310 310 310 310 310 310 310 309 309 309 308 308 307 307 305 304 303 302 302 301 301 301 301 300 300 299 300 300
306 306 306 305 304 304 304 303 302 301 302 303 304 304 304 304 304 303 302 301 301 300 301 300 300 300 300 299 299 299 299 299 298 297 295 294 294 296 300 301 302 301 302 301 302 302 302 303 303 303 303 304 304 304 305 305 306 307 308 308 308 309 308 308 308 309 308 307 307 307 306 306 304 303 302 302 301 301 300 300 300 300 300 299 299 299 299
304 305 303 302 303 302 302 303 303 304 303 303 302 303 303 303 303 302 302 301 301 301 301 301 301 301 301 300 300 300 300 300 300 300 300 299 296 297 301 300 302 300 301 300 301 301 301 302 302 302 302 303 303 303 303 303 303 304 304 305 306 307 307 307 308 308 307 306 305 305 305 305 304 303 302 301 301 301 301 301 301 300 300 300 300 299 299
304 304 303 303 302 303 303 304 305 303 302 301 301 301 302 303 302 302 302 303 302 302 302 302 302 301 301 301 300 299 297 298 299 300 299 300 301 301 301 300 300 300 300 300 299 300 300 301 301 301 301 302 302 301 301 302 301 301 302 303 303 304 306 305 305 305 305 304 304 304 303 303 303 303 302 301 301 301 301 300 300 300 300 300 300 300 300
303 302 301 301 303 305 304 304 304 301 300 301 302 302 302 302 302 302 302 302 302 302 302 302 303 302 302 302 302 301 300 298 295 297 299 299 299 300 301 300 299 300 300 299 299 299 299 299 299 300 301 301 301 300 300 301 301 301 301 301 301 302 303 303 304 304 304 304 303 302 302 302 302 302 300 300 299 300 300 299 299 299 299 299 298 298 298
301 299 302 304 303 303 302 302 300 301 301 303 303 302 301 301 301 301 301 301 301 301 301 301 302 302 303 302 302 301 302 302 299 297 299 300 299 299 300 301 299 299 300 299 298 298 299 298 298 299 299 299 298 299 299 299 300 300 300 301 300 300 301 302 303 304 303 302 302 301 301 300 300 300 300 299 300 299 300 299 299 299 299 298 298 298 298
301 303 301 301 301 302 301 300 300 301 302 303 302 302 303 302 300 300 301 301 300 300 300 301 301 302 302 301 301 302 304 302 303 301 302 300 300 301 300 301 301 299 299 299 298 299 298 299 298 298 297 297 297 297 297 297 298 299 299 299 299 299 300 300 300 300 301 300 300 300 300 300 300 300 300 300 299 299 299 299 299 298 298 298 298 298 297
303 302 300 301 301 302 303 303 303 303 303 303 303 303 303 301 300 301 301 300 301 300 299 300 301 301 301 301 302 302 303 302 302 301 301 300 301 300 300 300 300 299 299 298 298 298 299 299 298 297 297 297 297 296 296 296 296 297 297 297 298 298 298 299 299 299 299 299 299 298 298 298 298 298 298 298 298 298 298 298 298 298 298 297 297 297 297
302 302 302 301 300 302 303 303 304 304 304 304 303 303 303 303 302 302 301 301 301 300 300 300 299 301 302 301 301 301 301 300 301 300 300 300 299 299 300 299 298 299 298 297 298 298 298 299 298 298 297 297 296 296 296 296 295 295 296 296 296 297 297 297 297 296 297 297 297 297 297 297 296 297 297 297 296 296 296 296 296 296 296 296 296 296 296
Wind_Speed
6 6 7 5 4 4 4 4 3 4 4 4 5 6 6 5 6 6 13 15 15 16 14 11 10 9 9 8 9 8 8 9 9 10 12 13 14 14 15 15 15 16 15 14 14 15 14 15 15 14 13 13 12 11 10 7 2 3 5 7 9 10 10 10 10 10 9 10 10 11 12 11 12 12 12 11 11 11 11 11 11 12 13 13 13 13 12
5 5 4 3 3 3 3 3 3 2 3 5 6 7 8 9 11 14 13 13 14 11 12 10 8 7 7 8 7 7 9 10 10 11 12 13 13 14 14 14 14 13 13 13 13 13 13 15 15 13 12 12 12 12 11 10 10 7 4 5 7 10 11 12 11 11 10 9 10 11 11 12 12 12 12 12 11 12 12 12 11 11 11 12 13 13 13
4 3 2 2 2 1 4 4 4 4 3 4 4 7 8 10 10 11 12 14 12 9 9 10 8 6 6 5 7 7 8 9 10 11 12 12 13 13 13 13 14 13 13 13 13 13 13 13 13 12 11 11 11 11 12 12 11 10 8 5 5 8 10 11 10 10 11 11 11 11 11 11 11 12 12 11 11 11 12 12 12 11 11 13 13 13 13
5 4 2 2 1 3 4 6 6 8 8 7 6 5 4 4 10 11 12 11 10 10 9 9 8 7 5 5 5 6 6 8 10 11 11 12 12 12 13 13 13 13 13 14 14 14 13 13 12 12 11 12 12 12 12 12 11 11 10 8 5 6 7 7 10 12 11 11 11 12 12 12 12 12 12 12 12 12 12 13 12 12 13 13 13 13 12
4 6 3 1 5 5 6 7 6 6 5 6 8 7 5 6 7 10 9 5 11 12 11 10 9 8 6 4 4 5 6 7 8 10 10 11 11 11 12 12 12 12 12 12 12 13 11 11 11 12 11 11 11 11 11 11 10 11 11 9 7 5 5 7 10 10 10 11 12 12 13 13 12 11 12 13 13 14 14 13 13 13 13 14 14 14 14
4 6 2 4 5 8 3 9 6 3 6 7 7 7 6 5 3 4 7 12 11 11 9 8 8 7 5 4 4 4 5 5 7 8 9 10 10 10 10 11 11 11 10 10 10 11 11 11 12 11 10 10 10 10 9 9 9 10 10 9 8 7 6 6 7 8 10 11 11 12 13 12 12 12 13 13 14 14 13 12 13 13 14 15 14 13 14
3 5 4 6 7 4 8 5 6 3 4 3 5 7 5 6 7 8 10 9 10 7 6 6 5 3 3 4 6 5 5 6 6 7 8 8 9 10 9 10 11 11 10 11 11 11 11 11 10 10 10 11 10 10 10 9 9 9 9 8 8 7 7 7 7 7 7 9 12 13 11 12 13 14 13 13 14 13 13 13 13 13 14 14 14 14 15
2 4 5 4 2 8 4 5 3 4 2 3 5 6 5 4 5 7 8 9 7 6 6 5 4 2 3 5 5 4 5 5 5 7 7 8 9 9 9 10 9 9 10 11 11 11 10 9 9 9 10 11 11 11 11 9 9 9 8 7 7 8 8 7 8 9 9 8 8 10 12 12 13 14 14 14 14 13 12 12 12 12 12 13 14 15 15
3 4 6 2 7 6 5 5 6 5 5 7 6 4 8 5 3 5 7 7 7 5 6 3 3 1 3 5 5 4 4 4 5 6 7 7 7 8 8 9 9 8 8 10 11 10 9 9 9 9 9 9 10 10 10 9 9 8 8 7 7 8 8 8 8 8 9 10 9 9 8 10 13 14 13 15 14 12 12 12 13 13 12 12 12 13 15
5 4 5 2 4 4 7 6 8 5 5 4 1 4 8 3 4 3 7 8 6 6 5 3 1 1 4 4 5 7 4 4 5 5 5 6 7 8 9 9 9 9 9 10 11 10 10 10 9 9 10 10 10 9 9 10 10 9 8 8 8 9 9 9 8 8 8 9 10 10 10 11 11 11 13 12 12 11 12 12 14 13 12 12 12 12 14
4 5 4 3 4 1 7 10 8 6 3 2 2 4 6 8 6 5 5 7 7 5 5 2 3 5 6 4 4 7 2 4 5 5 5 6 7 8 10 11 11 10 10 11 11 10 10 10 9 10 10 10 10 10 10 10 10 10 9 8 9 9 11 10 10 8 7 7 8 10 10 10 12 9 7 7 10 11 11 10 12 12 11 12 12 12 14
5 5 4 3 2 2 8 10 8 7 4 1 5 6 5 8 7 6 5 7 7 6 3 2 2 4 5 2 8 3 6 8 7 7 7 7 6 7 8 10 11 12 11 10 10 10 11 10 11 11 9 9 10 10 10 10 9 9 9 9 10 9 9 10 10 10 8 7 7 8 9 9 10 8 4 5 4 4 9 12 12 10 12 13 14 13 13
4 2 6 4 3 6 9 9 9 7 2 3 6 5 8 6 8 7 5 6 4 3 2 2 3 3 4 6 6 6 7 8 8 8 9 9 9 9 9 8 10 11 11 11 11 12 10 10 10 10 8 9 9 10 11 10 10 10 10 10 10 10 10 10 11 10 9 8 9 9 9 7 7 6 3 7 8 10 10 9 10 10 13 14 13 13 13
6 5 6 5 1 7 9 9 8 6 5 5 3 9 8 8 8 4 4 3 3 2 3 3 3 3 3 5 6 6 7 8 9 9 9 9 10 10 9 10 9 9 10 12 13 13 11 11 10 9 9 9 9 9 10 11 11 11 10 10 10 10 10 11 11 11 10 10 10 9 8 8 7 6 7 7 7 11 9 7 9 10 9 10 13 13 13
2 3 5 2 6 5 9 12 8 5 7 4 7 8 7 5 5 5 5 4 3 3 4 4 4 4 5 5 6 7 8 8 9 9 10 10 11 11 11 11 10 10 10 12 13 14 12 11 10 10 10 10 10 10 10 11 11 11 11 11 11 11 11 11 10 10 10 11 10 8 8 8 9 9 8 8 8 7 9 11 12 12 11 11 12 13 13
3 3 4 3 3 7 10 11 4 9 2 6 5 3 5 5 3 4 4 4 4 3 4 4 4 4 5 6 6 6 6 8 9 9 9 10 11 12 12 12 12 12 11 11 13 14 13 11 11 10 10 11 10 11 12 10 10 10 11 11 11 11 10 10 10 10 10 10 9 9 10 9 9 9 8 7 7 7 8 10 11 13 13 11 10 12 13
6 2 2 7 4 7 10 5 5 6 7 4 3 2 0 5 4 4 4 4 4 5 5 5 5 6 5 6 6 6 7 7 8 9 10 11 12 13 13 13 13 12 12 13 13 14 13 13 12 11 10 11 13 13 11 9 10 10 10 11 11 11 11 11 11 11 10 10 10 10 10 10 10 9 9 8 8 7 8 9 11 13 14 14 13 13 13
5 8 6 1 3 6 7 3 2 6 7 5 3 3 4 4 3 5 4 3 4 5 5 6 5 5 5 6 7 7 7 8 8 9 10 11 11 12 13 14 14 14 14 14 14 15 15 14 12 11 11 11 14 13 11 10 10 10 10 10 11 11 11 11 11 11 11 12 11 11 10 10 10 9 9 9 9 8 8 9 10 11 13 13 14 15 14
1 3 8 11 9 7 8 8 7 5 5 4 3 4 5 3 4 5 5 4 4 5 5 6 6 7 7 8 8 8 9 9 9 9 9 10 11 12 13 13 14 13 13 13 13 14 15 14 13 12 12 12 12 12 12 11 10 10 11 11 11 11 11 11 11 10 11 10 9 9 10 10 9 9 9 8 9 9 9 10 11 12 13 13 14 14 15
8 6 4 4 4 6 7 8 9 10 10 8 7 5 5 5 4 5 5 6 6 6 7 7 8 8 8 8 9 9 9 9 9 9 9 10 11 12 13 13 13 13 13 14 15 14 14 13 13 12 12 13 13 13 12 12 12 12 12 11 11 11 12 11 10 10 11 12 11 10 10 9 9 9 8 8 9 9 9 9 11 12 11 12 8 7 9
8 10 8 6 5 6 7 9 10 8 7 8 9 8 7 7 7 7 7 7 6 6 6 6 7 9 9 10 10 11 10 11 11 11 12 13 14 14 14 13 13 13 13 14 15 16 15 14 14 14 14 13 13 14 13 12 12 12 11 12 12 13 12 11 11 10 10 10 10 10 9 9 9 10 10 10 10 10 10 9 9 9 11 8 6 10 10
10 8 6 8 9 8 10 14 13 12 10 9 8 9 9 8 8 7 7 7 8 8 7 8 8 10 9 10 11 12 11 11 12 13 13 13 14 14 13 13 13 14 15 15 16 16 15 14 14 14 15 14 13 13 13 12 12 12 12 11 12 12 11 11 11 10 9 9 10 9 10 9 10 11 13 14 13 12 12 10 13 16 12 12 11 9 10
8 5 5 3 6 8 8 4 4 7 9 10 10 10 9 8 8 7 7 7 8 8 8 7 8 9 10 11 11 12 11 12 12 13 14 14 13 13 14 15 15 15 15 16 17 18 16 15 15 15 15 14 14 13 13 12 12 12 12 11 11 11 11 11 10 9 9 9 9 10 9 9 9 10 12 12 13 16 17 16 17 18 19 21 19 15 10
14 13 12 9 8 9 8 7 6 7 7 8 10 9 9 8 7 7 7 7 7 7 7 8 9 10 11 12 12 13 13 14 14 15 15 15 15 16 15 14 15 16 16 16 17 18 17 17 17 16 16 15 14 14 13 13 13 13 13 12 12 11 11 11 10 10 10 10 10 10 10 9 9 10 11 13 13 13 19 21 20 21 20 21 20 19 19
12 11 11 9 9 10 9 8 7 7 7 8 8 8 9 8 7 6 7 6 7 9 9 9 10 10 11 12 12 14 14 14 14 16 17 17 17 17 16 17 16 16 15 14 15 15 16 17 18 18 17 17 15 15 14 13 13 13 13 14 14 13 12 12 11 11 11 10 10 10 11 10 10 10 10 11 13 13 9 13 16 16 17 16 17 18 19
13 12 11 7 6 8 8 8 9 8 8 9 8 7 6 6 5 6 6 7 8 9 9 10 11 11 11 12 12 13 14 15 15 16 15 16 16 16 16 17 17 15 15 15 15 16 17 19 19 19 20 19 17 16 16 15 15 15 15 15 16 14 12 12 12 11 11 11 11 11 10 10 10 12 11 11 12 14 15 15 12 10 12 16 17 17 18
11 11 11 10 11 11 10 11 10 9 10 9 9 8 7 6 6 6 7 8 9 10 10 10 10 11 11 11 13 13 14 15 15 14 14 16 17 17 16 16 17 18 18 17 17 17 18 18 18 20 21 20 18 17 16 16 16 16 15 15 14 17 23 18 13 12 12 11 12 12 11 11 11 11 12 12 12 13 13 14 13 13 12 8 11 17 15
10 10 10 11 10 10 10 11 11 6 7 8 8 8 7 6 6 8 10 10 9 8 8 9 9 10 11 11 12 13 13 15 15 15 15 16 16 15 16 18 18 19 18 18 18 17 17 17 19 20 22 20 18 18 17 16 17 18 18 17 16 15 13 15 14 13 12 12 12 11 11 11 11 12 11 12 12 12 11 14 14 13 12 11 10 9 15
9 10 10 11 10 9 5 5 7 9 8 7 7 6 6 7 9 10 9 8 7 8 8 9 9 10 11 11 11 13 13 14 15 16 16 15 15 16 16 18 18 18 17 18 17 17 18 18 19 20 21 20 19 19 18 17 17 17 16 15 14 14 13 13 12 12 12 12 11 12 12 11 11 12 12 12 13 13 14 15 15 13 13 13 11 12 11
8 8 9 9 10 9 8 9 8 8 8 8 8 7 6 8 9 8 7 8 7 8 8 9 9 10 11 11 12 12 13 15 15 15 15 15 16 16 16 16 18 18 17 17 17 17 18 19 19 19 18 18 19 19 18 16 15 16 17 17 16 14 13 13 12 12 12 12 12 13 13 12 12 12 13 13 13 13 13 13 14 13 14 13 12 12 11
5 5 6 8 10 10 11 10 9 9 8 8 7 8 9 9 8 7 7 7 8 9 9 9 10 11 11 11 11 12 13 15 14 14 15 15 15 16 16 15 15 15 15 16 18 18 19 20 20 20 20 19 19 19 17 16 15 15 15 15 15 18 19 17 14 12 12 13 12 12 11 11 11 11 13 13 14 12 11 11 13 13 13 13 12 11 10
7 6 7 8 9 10 11 9 8 9 8 8 9 9 8 7 8 8 8 8 8 9 9 10 11 11 11 11 11 13 14 15 15 16 16 16 15 15 15 15 16 17 17 17 17 17 18 20 22 21 18 18 19 20 17 16 15 14 14 14 14 13 14 18 15 15 14 14 13 13 12 12 13 13 13 13 13 12 11 12 13 13 12 12 13 12 10
9 8 8 9 9 11 10 9 9 9 9 9 9 7 6 6 6 6 7 7 8 8 8 9 9 10 11 12 13 14 14 15 15 16 16 15 15 15 15 14 15 15 16 16 17 20 20 21 21 19 19 19 17 18 17 17 15 14 14 14 13 13 14 13 14 12 12 13 12 12 12 13 13 13 13 13 13 12 12 12 13 14 15 14 13 12 11
10 9 7 9 10 9 11 10 8 7 7 6 6 6 6 6 6 6 7 7 8 8 8 8 9 10 12 13 13 14 14 14 14 14 14 14 15 15 15 16 15 16 16 17 18 16 15 17 17 16 14 14 15 16 17 18 17 15 14 14 14 13 13 13 12 11 12 12 12 12 11 11 10 10 11 11 12 12 12 12 12 12 13 13 12 12 11
9 9 8 7 9 8 7 7 7 7 6 6 6 6 5 5 6 7 5 6 8 7 7 8 10 11 11 12 13 14 14 14 14 14 15 16 16 17 16 16 16 16 16 15 15 14 14 15 16 15 14 13 14 15 16 16 15 14 15 15 15 13 12 12 12 13 12 11 11 11 11 10 11 10 11 12 12 12 12 11 11 12 12 13 12 11 11
9 9 7 6 7 8 7 6 5 6 5 5 5 5 5 6 6 6 6 6 6 6 7 8 10 11 11 12 12 13 13 13 14 14 15 15 15 14 15 15 16 16 16 16 14 13 15 14 18 22 16 14 13 14 16 16 15 15 15 15 14 14 13 13 12 10 9 9 10 8 9 11 11 11 11 10 11 11 11 12 11 10 11 11 11 11 11
9 9 7 7 7 8 8 6 5 5 5 5 5 5 6 6 6 5 5 6 6 7 7 7 9 10 11 11 12 12 11 11 12 13 13 14 13 14 14 15 15 15 15 15 14 14 14 14 19 25 19 13 15 16 16 22 16 15 15 15 14 13 12 11 10 9 9 8 10 10 10 10 10 10 10 10 10 10 10 11 11 10 9 10 9 8 8
9 10 10 8 8 8 8 6 6 5 5 6 5 5 5 5 4 4 4 5 6 6 6 8 8 9 9 10 10 11 11 12 13 14 14 15 14 13 14 12 11 11 12 12 14 14 11 14 21 15 12 10 10 13 17 21 21 15 12 13 11 10 11 10 9 9 9 9 10 9 9 9 9 9 9 9 9 9 9 8 8 9 9 7 7 7 6
8 9 9 9 9 9 8 7 6 6 6 6 5 5 5 4 3 3 4 5 4 5 6 7 7 8 8 10 10 11 11 11 13 14 14 14 13 12 11 11 10 10 11 14 15 13 11 13 12 10 10 11 11 11 12 15 20 12 12 11 8 8 8 9 10 8 9 9 8 8 8 8 8 9 8 8 7 7 7 7 7 7 6 5 5 5 4
5 6 9 9 8 8 8 8 7 6 6 5 5 6 5 5 4 3 3 4 4 5 5 4 6 7 8 10 11 11 11 12 11 12 13 13 12 12 12 11 11 12 14 18 15 11 13 18 13 9 9 11 11 9 10 13 12 9 9 7 8 7 7 8 9 9 9 8 8 9 8 8 8 8 7 6 6 6 5 5 4 4 4 3 3 3 3
4 2 5 5 5 7 8 7 7 6 5 6 5 4 4 4 2 2 1 3 4 2 2 4 6 7 8 9 10 11 11 11 12 12 12 12 11 11 11 11 11 12 13 12 13 12 13 12 9 10 9 9 7 10 9 12 11 7 7 7 7 8 8 9 9 9 8 8 7 7 7 7 7 7 6 5 5 4 4 3 3 2 2 2 2 2 3
7 10 10 9 7 2 2 3 4 5 5 5 5 5 4 2 1 0 2 2 1 1 3 4 5 7 8 9 9 10 10 10 11 12 12 11 11 10 11 11 11 11 15 17 14 12 9 9 9 9 9 9 9 14 14 9 7 7 6 7 7 8 8 8 8 7 7 6 6 6 6 6 6 5 4 3 3 2 2 1 1 1 2 2 3 3 4
6 9 11 8 6 5 5 5 4 5 6 5 5 4 4 3 2 1 1 1 1 2 3 4 5 6 7 8 9 10 9 10 10 11 11 10 10 9 9 11 11 9 17 13 12 9 7 7 7 7 13 12 10 15 14 8 7 6 6 6 6 6 6 6 6 6 6 6 5 5 5 4 4 3 2 2 1 0 0 1 1 2 2 3 3 4 4
6 7 9 9 9 8 8 6 6 5 4 5 4 4 4 3 2 2 2 1 2 3 4 4 5 6 7 8 8 8 8 8 9 9 9 10 10 8 8 9 8 10 16 10 9 8 8 9 8 12 16 15 14 13 8 6 6 6 6 6 6 5 5 5 5 5 5 4 4 3 3 3 2 2 2 2 1 1 2 1 1 2 2 3 3 3 4
5 5 7 11 11 10 8 6 7 6 5 5 4 4 4 4 3 3 3 2 2 2 3 4 4 5 6 7 7 8 8 7 6 8 9 10 10 8 9 11 9 7 9 13 8 9 8 8 11 16 12 13 10 10 6 6 5 5 4 4 4 3 3 4 4 4 4 4 4 3 2 2 2 2 2 2 2 2 2 2 3 3 3 3 4 4 4
5 4 5 7 11 9 7 6 6 6 6 6 5 5 5 4 4 4 3 2 2 1 2 3 4 5 6 6 7 8 8 6 5 6 6 7 7 7 8 10 7 9 12 13 8 9 9 16 16 14 13 13 12 8 6 6 6 5 5 4 2 1 0 2 3 3 3 4 4 4 4 3 3 3 3 2 3 3 3 4 4 4 4 5 5 5 5
6 3 9 11 11 9 8 6 7 8 7 6 6 5 5 5 4 3 3 2 2 2 3 3 3 4 3 4 5 5 6 7 5 6 8 7 7 8 8 11 12 14 10 8 7 7 8 10 12 15 15 15 15 7 7 7 7 7 7 6 6 4 2 2 3 3 4 5 5 6 6 5 4 4 4 4 4 4 4 5 5 6 6 7 7 7 7
5 8 9 9 8 8 7 7 8 7 6 6 5 6 6 6 4 4 3 3 3 2 2 3 3 2 3 4 4 4 5 6 7 7 7 8 8 8 6 6 9 14 14 11 12 12 17 17 17 17 18 16 10 8 9 7 7 7 7 7 6 6 6 6 5 4 5 5 6 6 6 6 5 4 5 4 4 4 5 5 5 6 7 7 7 7 8
9 10 7 7 7 7 6 6 6 5 5 6 6 6 6 6 5 4 3 3 2 1 2 3 3 4 4 4 5 5 5 5 5 6 6 7 7 8 8 8 12 13 10 8 8 7 14 18 18 18 18 15 10 8 9 9 8 7 7 8 8 8 7 7 7 7 8 8 8 8 7 7 6 6 5 5 6 6 7 7 7 7 8 9 9 9 9
8 7 6 5 6 6 6 5 5 5 5 6 6 6 5 5 5 4 3 3 2 2 3 3 4 4 4 4 5 5 5 5 5 6 6 7 8 8 9 9 8 12 13 9 9 8 12 18 17 17 13 9 9 10 10 10 10 11 9 9 9 8 9 10 11 11 8 8 9 9 8 7 6 7 7 5 7 8 8 9 10 11 14 11 10 10 9
7 6 6 6 5 5 4 4 5 5 5 6 6 5 4 4 3 3 3 2 1 2 3 3 3 4 4 4 5 6 6 5 5 6 6 6 6 9 11 10 10 10 11 10 10 9 8 8 10 11 11 10 9 10 10 10 9 10 10 9 10 9 8 8 7 8 9 9 10 10 9 7 8 10 8 7 9 10 10 10 9 9 10 10 10 10 11
7 7 6 6 6 5 4 4 4 4 5 6 6 5 5 4 3 2 3 2 1 2 3 3 4 5 5 4 5 5 5 6 6 6 7 7 8 8 9 11 10 10 10 9 9 10 9 9 10 14 13 10 9 9 11 14 11 9 10 10 10 10 10 10 9 10 11 11 9 7 8 8 9 10 11 10 10 9 8 8 8 8 9 9 10 10 10
Wind_Direction
79 65 72 60 70 62 69 61 52 57 42 47 77 71 38 6 285 165 147 155 145 146 144 140 125 118 106 83 59 50 52 48 50 46 44 44 43 41 39 35 35 30 28 24 19 17 14 14 16 16 14 9 6 3 7 6 339 360 323 255 242 248 242 240 237 236 232 226 219 216 219 221 219 222 225 221 221 221 214 217 216 217 216 216 213 216 217
97 88 81 63 70 113 135 100 99 68 67 71 76 80 65 73 85 114 143 152 139 144 142 138 134 124 98 82 71 54 45 47 42 44 43 40 38 38 38 33 32 29 26 25 19 16 15 13 10 11 9 6 3 0 359 358 354 357 343 309 276 246 245 242 240 240 233 227 223 222 216 216 216 217 219 220 219 218 218 216 219 220 221 221 222 218 218
111 97 153 141 97 129 140 138 146 147 134 119 84 98 98 108 106 112 139 141 136 129 135 131 132 125 84 82 74 60 43 37 39 41 40 37 34 35 35 34 31 26 24 20 17 14 14 9 7 6 4 1 358 359 358 358 349 347 342 330 274 261 250 244 243 234 231 231 226 223 218 214 214 215 216 219 219 218 219 219 220 217 220 222 225 225 223
147 145 145 147 162 190 171 144 152 157 161 148 151 131 118 162 134 137 137 154 157 148 145 141 139 140 132 92 62 63 49 34 35 37 36 33 29 29 28 28 25 23 21 20 13 9 5 3 4 4 2 358 357 356 350 351 347 342 342 333 319 290 276 276 250 240 234 231 229 230 223 215 213 212 214 216 219 219 219 220 217 219 219 221 224 228 229
149 121 180 120 200 187 191 175 140 128 94 95 96 91 76 69 131 153 179 145 124 144 156 154 154 146 136 119 46 54 56 44 33 34 31 28 26 24 25 22 21 18 17 16 11 5 0 358 359 359 359 356 352 348 346 340 339 344 343 339 332 339 347 303 285 278 250 234 236 234 234 231 219 213 214 215 218 221 222 222 221 219 223 222 221 224 230
133 141 142 208 208 215 164 78 83 64 130 148 144 124 114 95 277 66 53 101 121 138 155 164 156 166 114 110 92 42 37 35 35 29 29 21 20 19 20 15 17 14 9 9 6 2 356 355 356 352 356 350 342 337 339 339 342 343 342 339 346 347 341 338 305 277 274 258 243 238 239 235 230 221 218 218 220 222 225 223 222 223 223 222 223 223 225
169 139 182 202 216 192 89 117 98 94 87 60 81 107 111 111 94 112 113 112 122 133 131 118 120 131 142 158 139 114 66 41 31 22 22 16 11 11 9 7 9 6 2 1 356 359 354 353 349 348 350 346 338 338 338 341 346 344 339 337 344 345 347 337 338 331 299 267 257 250 243 236 234 234 225 223 223 225 226 224 222 223 225 224 223 223 224
96 188 189 207 132 87 129 99 126 82 197 120 149 123 117 119 132 130 135 132 129 134 138 138 149 152 117 142 140 126 91 34 25 19 10 9 4 2 359 357 359 357 355 355 353 351 339 345 346 349 347 339 337 336 333 338 345 342 336 335 343 344 337 340 342 333 325 310 285 263 249 241 235 236 236 229 225 224 228 233 229 224 222 228 227 224 225
232 211 204 176 100 171 141 155 167 193 175 187 200 184 140 116 157 163 150 156 159 160 146 176 157 197 196 175 161 150 72 60 26 15 3 4 354 347 348 351 347 349 343 347 347 336 338 338 340 346 340 336 334 330 329 334 333 338 334 335 341 337 335 335 335 331 328 320 311 289 272 254 246 241 238 239 237 231 230 232 234 230 229 226 225 228 227
270 260 206 206 203 241 174 131 115 72 70 24 49 298 139 146 133 154 153 167 160 169 169 166 255 253 240 233 173 167 121 32 24 10 2 352 346 341 340 336 335 338 344 339 336 329 329 331 342 340 332 334 330 328 329 330 330 327 331 338 343 336 331 330 328 326 321 319 314 308 287 269 260 252 248 253 247 232 237 239 235 235 235 232 229 229 230
206 242 252 208 224 104 89 128 125 113 94 97 350 241 201 142 161 162 173 167 164 191 186 165 234 230 231 221 118 102 39 352 358 351 348 344 341 336 335 333 330 336 338 330 319 318 321 328 338 330 326 328 327 330 332 327 322 323 326 335 337 334 326 325 318 314 312 301 306 304 304 296 275 276 299 311 316 318 274 236 245 249 244 241 238 233 231
224 254 242 235 287 99 143 133 141 131 95 58 239 232 174 138 157 159 179 175 173 175 179 255 231 253 232 164 85 7 345 342 335 338 334 331 332 328 328 324 332 328 322 313 313 320 323 328 324 320 323 320 322 324 326 323 319 318 324 328 326 321 321 318 314 312 312 306 290 291 293 299 306 322 360 19 335 324 320 313 298 273 250 246 246 242 237
173 216 251 277 138 120 130 143 136 124 145 243 221 228 107 156 142 153 154 167 157 158 215 218 252 205 333 348 350 349 334 321 323 327 322 320 326 325 323 330 333 314 314 314 315 315 317 317 313 314 314 314 313 318 317 317 318 317 320 319 315 314 314 314 314 311 308 308 308 297 287 289 304 302 246 231 230 227 226 233 236 257 270 265 251 246 243
249 221 247 238 77 95 141 138 138 138 188 207 205 90 119 130 141 133 165 189 180 208 245 256 271 306 320 311 313 306 313 319 316 311 314 319 319 317 320 323 311 310 310 308 307 307 311 309 308 307 307 303 305 305 307 307 314 319 316 312 310 310 310 308 311 312 311 309 307 303 297 291 279 272 274 262 250 250 259 255 249 249 250 260 262 261 258
241 256 249 255 249 131 176 137 147 175 245 67 102 130 120 137 155 177 188 223 213 230 245 230 250 265 281 297 308 310 302 306 306 310 314 315 314 316 316 310 314 313 310 309 307 306 306 306 309 305 301 298 295 295 290 297 307 312 313 308 305 304 302 302 302 304 304 304 301 297 291 282 278 272 266 263 259 254 247 251 252 249 244 246 248 248 249
254 208 219 235 30 118 157 161 211 174 242 107 123 125 163 165 198 200 221 206 229 233 242 268 268 272 279 276 276 282 286 288 297 299 303 305 307 307 308 311 312 315 306 300 299 300 302 302 300 297 295 291 286 284 285 292 298 304 303 302 300 298 296 295 298 298 300 300 298 293 289 283 274 271 266 256 261 261 255 247 247 247 247 244 248 251 252
240 282 18 65 109 141 170 195 36 129 128 132 122 207 104 177 191 210 236 234 203 223 251 259 259 258 258 275 278 280 286 287 288 297 300 303 304 304 307 308 309 304 301 300 296 293 293 295 296 295 291 285 283 279 282 289 292 295 297 297 295 293 293 294 296 297 295 294 294 292 288 284 280 273 262 253 245 238 249 258 255 249 244 240 237 240 243
249 275 265 48 130 167 180 170 139 138 146 143 169 205 221 198 213 187 233 220 228 231 231 255 254 257 270 267 271 275 279 282 286 287 289 289 293 298 300 301 304 304 301 297 293 291 290 289 289 287 284 282 281 281 284 285 287 290 289 287 286 286 288 288 289 291 291 292 291 291 289 286 279 272 271 262 252 246 243 242 248 252 248 240 237 239 242
191 237 186 214 216 190 200 200 179 174 183 188 190 206 226 217 202 207 213 233 234 237 240 245 262 276 277 275 279 283 284 283 284 281 283 288 288 292 294 296 298 296 296 293 290 289 288 290 291 289 287 283 281 282 280 277 279 282 285 283 279 278 278 280 282 282 283 283 287 290 290 282 269 266 261 255 250 245 242 253 255 253 249 243 241 240 242
223 253 127 191 191 228 222 220 211 209 211 212 207 214 214 212 200 218 218 209 230 228 235 238 255 266 270 277 281 285 286 291 290 289 285 287 291 291 292 293 291 287 285 284 285 285 284 285 287 286 284 282 281 280 278 278 281 282 279 275 276 276 275 277 276 276 278 283 283 280 282 283 283 280 274 265 258 248 243 241 253 261 261 258 267 291 280
229 246 247 210 180 208 213 220 227 232 221 210 201 202 206 206 208 209 215 219 236 230 241 252 261 271 278 285 288 290 293 291 291 292 295 294 294 294 292 291 289 285 285 284 284 284 283 284 284 283 281 279 279 277 274 272 270 270 271 272 271 273 274 272 272 274 275 277 277 280 283 286 284 283 282 280 276 272 265 258 261 274 285 290 241 226 243
242 246 244 217 231 234 218 213 216 219 219 220 201 195 206 212 214 213 225 219 219 231 242 257 264 272 281 285 287 288 292 292 294 295 296 296 294 293 292 290 287 284 282 281 281 281 282 281 279 278 278 276 274 273 273 271 268 266 267 269 271 272 271 270 268 268 268 273 282 286 286 285 286 281 272 254 256 271 277 280 296 295 286 276 280 297 294
257 261 269 258 260 270 298 326 189 208 212 207 207 204 206 210 213 216 222 230 233 241 250 252 264 273 279 285 289 288 288 292 295 296 297 295 294 293 293 289 284 281 282 282 283 282 282 282 279 277 274 272 270 268 266 266 264 263 264 266 269 270 268 265 266 271 275 278 280 281 280 282 282 284 289 277 238 231 242 252 255 258 264 270 274 263 243
269 277 280 274 256 259 255 241 224 211 199 200 202 207 207 211 214 213 223 231 249 258 257 263 268 279 282 284 287 289 291 292 295 296 296 297 296 294 291 288 287 284 281 280 279 281 282 281 280 279 278 276 274 271 269 266 262 261 261 262 265 267 267 268 266 262 261 262 268 273 277 276 276 280 283 283 284 246 228 236 237 238 242 249 256 262 264
261 270 278 281 274 259 249 252 233 226 202 203 208 206 207 208 211 223 231 236 250 263 267 275 281 283 284 285 286 290 294 295 295 297 298 297 296 293 291 288 285 283 281 280 279 278 278 278 279 279 276 275 275 275 273 271 268 263 259 259 262 266 267 266 263 264 264 264 264 269 273 275 275 275 273 280 284 292 258 227 232 242 252 249 250 257 258
257 259 262 267 264 251 251 237 224 224 206 198 211 216 207 216 227 224 226 241 260 265 270 274 277 280 285 288 289 290 292 292 295 296 295 294 294 292 291 289 287 285 284 283 281 281 280 279 279 278 276 274 271 267 266 263 260 257 256 256 258 260 261 259 260 262 265 267 267 264 264 269 275 275 273 272 278 283 287 290 281 251 229 235 244 248 254
255 255 259 252 244 244 230 227 231 211 205 202 211 213 214 208 192 223 247 255 265 272 282 286 284 283 284 285 287 287 289 296 296 293 291 291 290 290 290 290 288 287 285 283 281 280 280 279 278 276 274 275 274 273 269 266 263 260 256 256 256 259 260 260 260 260 259 260 261 261 266 268 267 267 269 274 280 281 286 286 289 288 296 269 223 217 236
254 244 236 242 245 248 242 227 229 214 204 198 202 210 211 200 210 244 254 260 258 253 254 261 267 275 281 285 288 291 293 294 295 295 293 290 291 291 291 291 290 288 286 284 282 280 278 277 276 274 273 273 274 271 266 261 261 258 256 256 258 258 260 257 252 252 253 255 258 260 263 266 267 271 276 279 275 277 280 280 280 283 283 277 285 270 235
236 240 239 239 248 264 266 233 217 213 207 193 194 198 205 210 240 257 258 252 255 260 260 264 274 280 283 287 289 292 294 294 295 295 294 292 291 290 290 289 288 288 286 283 282 282 281 278 276 275 274 273 270 267 267 264 260 256 253 251 250 250 250 251 250 250 252 252 251 256 261 264 269 270 271 271 274 275 277 278 280 280 277 283 283 277 265
245 245 243 237 232 223 208 211 210 203 200 186 191 195 212 241 253 249 249 255 262 265 270 284 286 285 287 288 292 295 294 294 294 293 292 290 290 291 291 291 291 288 285 284 284 284 283 281 279 274 271 270 267 264 261 257 254 254 254 253 252 253 254 254 252 252 253 254 257 258 257 255 257 260 263 266 269 271 273 274 275 276 279 279 276 275 277
255 246 246 234 226 216 215 220 221 215 208 194 199 221 234 241 248 254 259 267 267 267 278 283 284 287 290 293 295 296 295 295 293 291 289 290 290 290 289 288 289 290 291 291 291 289 286 283 280 276 275 270 262 259 255 253 252 251 249 247 246 244 245 253 258 259 260 256 260 265 265 261 260 259 262 267 269 267 263 267 270 269 272 273 272 273 274
246 229 227 224 217 212 216 219 216 209 204 211 224 230 229 226 232 242 253 263 267 276 285 288 289 293 297 299 297 295 295 294 293 292 291 290 290 290 291 290 290 290 289 287 286 286 287 285 280 275 268 261 256 254 253 251 249 248 249 249 250 251 241 227 236 241 246 252 255 255 256 260 260 261 261 261 261 261 264 266 269 272 274 273 276 276 282
228 222 213 209 207 211 213 204 206 209 213 226 231 232 229 230 240 255 264 267 276 281 282 282 288 294 301 300 298 296 295 295 293 291 290 290 291 294 294 294 292 291 290 290 290 292 291 284 277 271 265 258 253 250 247 247 244 245 245 245 249 248 248 242 239 243 245 248 247 247 253 256 260 258 257 258 260 265 267 266 269 271 270 271 270 273 269
221 225 221 198 199 198 201 200 205 217 212 216 223 220 226 232 245 256 258 265 274 280 283 294 300 301 299 297 297 297 297 296 296 296 296 296 296 297 297 294 293 292 290 291 294 297 301 294 281 272 267 263 259 251 247 248 246 246 246 249 247 247 245 242 235 237 245 247 249 254 256 256 252 254 254 254 259 263 265 267 269 270 272 273 273 274 283
228 230 229 207 203 209 207 207 200 204 211 216 213 218 220 233 244 250 267 286 280 282 290 296 298 299 301 301 301 300 301 301 303 302 301 301 301 300 299 298 296 292 289 290 298 301 312 321 312 290 270 262 258 256 249 248 246 244 245 245 245 245 244 244 247 246 248 247 251 254 254 253 253 250 251 256 260 260 262 263 265 268 272 274 276 278 277
222 224 214 197 192 190 183 191 187 193 205 216 223 222 232 242 245 256 262 262 270 285 293 299 302 302 300 301 301 305 309 308 306 305 305 306 305 301 297 295 294 294 293 296 296 307 316 313 313 313 298 264 255 250 248 248 246 246 245 243 239 237 238 240 244 248 248 255 258 255 252 251 254 255 255 255 255 257 261 264 266 269 270 274 278 279 279
223 214 195 190 181 183 178 179 182 190 198 204 210 219 231 239 250 265 261 263 279 293 301 309 304 301 305 308 307 305 307 307 308 308 307 304 302 299 295 295 295 297 300 297 301 314 313 309 312 313 316 286 259 247 245 241 241 243 243 244 247 246 246 245 242 238 242 244 245 245 247 250 250 250 249 251 254 258 260 263 268 273 277 282 289 297 299
220 210 197 191 182 184 183 178 179 184 192 197 207 234 249 251 246 248 263 280 288 306 318 311 309 314 309 309 310 312 311 312 313 311 309 307 305 300 297 295 298 306 307 306 312 310 306 309 312 315 312 304 281 261 249 243 241 241 239 237 237 243 242 242 243 242 238 234 235 238 240 242 246 251 251 251 254 259 264 271 276 280 285 291 298 299 298
225 213 206 193 187 193 191 177 174 184 191 199 212 215 213 227 227 246 264 283 321 331 315 318 321 312 316 317 317 316 318 317 316 315 312 308 306 301 292 297 294 306 314 313 309 306 303 310 317 314 311 310 308 305 289 267 245 242 241 239 237 237 239 238 239 233 230 231 235 235 238 241 246 249 252 256 260 266 268 274 281 287 289 298 302 298 305
258 238 217 203 195 197 195 185 178 182 187 201 212 205 182 205 224 250 277 295 331 332 327 329 320 321 323 325 322 320 322 319 317 316 314 311 307 299 296 296 299 306 313 313 312 305 309 317 318 311 308 309 310 307 303 295 281 254 237 229 231 235 234 236 232 228 227 230 233 233 237 241 244 245 250 256 260 265 271 276 280 284 285 293 304 325 341
160 191 318 298 236 211 205 192 187 186 187 187 193 193 181 204 210 238 297 328 329 351 346 322 321 324 330 328 328 324 320 318 319 320 318 312 307 307 308 309 315 319 314 313 317 318 319 318 314 311 311 310 303 300 299 301 292 264 245 233 231 232 226 227 227 232 234 234 230 231 234 237 240 242 247 249 255 263 266 277 283 308 306 312 351 8 28
234 209 202 214 211 179 306 238 199 197 189 182 172 164 166 169 183 20 3 320 318 3 345 326 338 329 326 329 326 323 320 322 323 322 321 317 318 315 318 317 323 317 318 320 325 324 318 317 315 315 314 310 307 311 307 303 302 290 263 244 233 235 232 231 227 232 231 235 233 235 234 235 238 239 236 243 257 271 283 295 355 17 17 27 37 41 50
248 213 203 182 153 149 187 201 208 216 191 174 165 162 154 146 133 118 148 137 5 352 349 337 333 327 331 332 330 326 324 320 323 328 327 322 320 317 322 318 316 317 327 330 329 324 324 326 324 319 320 317 309 308 306 294 285 280 274 261 243 240 235 235 233 224 222 223 229 227 229 231 232 222 213 212 219 226 35 53 60 49 50 48 51 57 62
276 237 208 180 164 173 181 192 208 195 180 159 159 159 152 139 111 116 116 77 28 11 349 348 341 345 338 334 330 327 326 327 330 337 332 327 325 331 326 309 321 328 339 340 332 331 331 332 333 331 330 326 320 319 311 301 292 280 266 249 239 228 226 218 221 218 213 206 210 215 218 215 207 181 151 149 154 164 142 122 103 73 71 65 68 69 72
266 239 211 177 170 175 168 176 185 186 168 151 157 144 134 122 117 121 107 86 45 16 353 349 350 348 342 337 336 332 332 335 336 339 335 339 333 335 328 335 335 334 344 348 344 342 335 337 349 345 347 347 348 353 348 332 320 300 272 260 247 234 217 217 214 207 192 170 151 132 109 118 122 119 126 118 131 138 135 128 108 105 103 93 85 87 89
277 236 162 188 183 168 160 163 170 171 163 161 144 137 130 126 132 126 109 87 96 67 31 11 359 349 343 336 335 336 336 339 336 345 340 332 324 321 329 349 341 351 2 4 356 353 345 353 2 3 4 13 12 12 10 1 6 356 2 355 354 55 108 214 214 197 159 137 116 107 110 112 110 108 108 121 122 124 125 119 117 112 107 105 101 101 102
277 179 181 178 155 149 147 153 165 171 171 153 147 142 142 139 143 135 128 117 86 53 41 34 6 357 350 349 340 337 348 344 353 0 344 335 335 337 337 358 10 10 10 3 359 3 4 3 7 15 20 22 24 12 12 14 18 25 27 27 21 31 62 71 56 79 91 98 98 101 99 98 101 99 107 106 112 113 115 113 109 104 102 101 100 98 96
205 145 131 141 146 136 146 162 174 178 161 157 158 135 144 144 143 135 141 127 87 61 34 43 43 29 21 18 14 16 13 359 350 356 351 345 351 350 348 4 16 20 19 9 10 8 20 18 18 22 26 24 14 16 18 14 19 20 26 30 26 15 31 58 68 83 93 90 87 79 85 88 90 97 95 94 99 105 109 104 102 95 91 86 86 86 87
124 125 131 130 129 139 142 163 167 156 157 152 140 143 145 144 146 148 140 127 135 124 71 63 49 49 41 39 21 19 28 32 10 350 352 360 1 3 2 3 21 22 19 11 14 360 24 29 26 29 28 26 14 14 17 17 17 22 23 30 39 36 30 42 61 71 67 69 79 79 71 64 61 64 78 92 105 105 106 103 101 101 100 96 91 88 86
108 119 110 115 118 130 157 164 163 152 153 152 140 146 157 165 167 160 165 139 113 71 44 43 40 44 32 29 29 31 24 11 18 14 9 13 11 11 14 14 10 21 25 23 16 13 24 35 34 32 28 20 24 27 26 21 20 19 16 20 25 31 33 40 42 43 50 59 60 58 58 60 66 80 84 86 95 95 92 89 89 87 87 87 86 86 84
103 95 111 114 132 140 153 162 144 149 162 135 144 153 171 180 161 143 141 129 128 89 55 48 46 43 29 30 32 36 23 24 31 29 21 23 19 24 23 21 19 19 23 25 21 15 11 26 39 36 30 27 25 31 35 33 24 28 31 26 23 23 26 27 34 46 46 45 45 49 49 45 70 80 68 57 69 73 71 73 69 71 76 81 81 84 83
83 85 92 104 101 79 94 116 146 141 134 146 155 160 175 163 151 125 111 90 66 53 46 42 42 34 21 31 34 41 35 27 31 41 31 24 16 18 24 24 24 24 23 22 23 26 24 18 29 41 41 35 30 32 37 40 36 30 30 32 35 37 35 31 27 32 36 43 47 48 55 52 49 57 70 70 62 59 54 55 63 61 59 60 63 63 62